User: anonymous   Login
Location: Unspecified
(0.0000°N, 0.0000°E)
Time: 10:57:35
(UTC+00:00)
Language:

USA 229 - Orbit

View from above orbital plane
View from above orbital plane
View from above satellite
View from above satellite

Ground track
Ground track

The orbit data is extracted from the following two-line orbital elements,

1 37386U 11014A   18333.45795943 0.00000000  00000-0  00000-0 0    01
2 37386  63.4406 107.0544 0114000 359.9212   0.0788 13.40771342    05
Epoch (UTC): 29 November 2018 10:59:27
Eccentricity: 0.0114000
inclination: 63.4406°
perigee height: 1021 km
apogee height: 1192 km
right ascension of ascending node: 107.0544°
argument of perigee: 359.9212°
revolutions per day: 13.40771342
mean anomaly at epoch: 0.0788°
orbit number at epoch: 0

The dashed part of the orbit path shows where the satellite is in the earth's shadow,  

DLR